Simultaneous Nadir Overpasses (SNOs) Predictions

Prediction of SNOs over PacNW region [( 10.00, 139.50) to ( 22.70, 165.60)] between NOAA-19 and NPP Satellites:

Table of predicted SNOs over PacNW region for the next 30.0 days since TLE Epoch: 3/14/2014
Index Date (NOAA-19) Time (NOAA-19) NOAA-19 Lat,Lon Date (NPP) Time (NPP) NPP Lat,Lon Distance(km) Time Diff (sec)
1 03/18/2014 02:47:23 13.16, 162.93 03/18/2014 02:50:06 11.94, 157.84 568.85 163
2 03/18/2014 15:23:51 18.08, 158.84 03/18/2014 15:22:32 18.94, 154.62 455.25 79
3 03/31/2014 03:49:02 20.16, 146.45 03/31/2014 03:49:45 19.06, 141.83 500.31 43
4 03/31/2014 16:25:38 10.83, 142.32 03/31/2014 16:22:14 11.63, 138.56 419.11 204
5 04/12/2014 15:50:54 22.63, 153.15 04/12/2014 15:53:45 23.87, 147.84 559.41 171
